Weather History for KLNR - January, 2013

Change the Weather History Date:

Wednesday, January 16, 2013

  Actual Average Record
Temperature  
Mean Temperature 28 °F -  
Max Temperature 37 °F 24 °F 46 °F (2006)
Min Temperature 19 °F 9 °F -34 °F (2009)
Degree Days  
Heating Degree Days 37    
Moisture  
Dew Point 20 °F    
Average Humidity 67    
Maximum Humidity 82    
Minimum Humidity 58    
Precipitation  
Precipitation 0.00 in - - ()
Sea Level Pressure  
Sea Level Pressure 29.90 in    
Wind  
Wind Speed 8 mph (West)    
Max Wind Speed 15 mph    
Max Gust Speed 23 mph    
Visibility 10 miles    
Events Snow    
Averages and records for this station are not official NWS values.
T = Trace of Precipitation, MM = Missing Value Source: NWS Daily Summary

Daily Weather History Graph

Daily Weather History Graph

Search for Another Location

Airport or City:

Trip Planner

Search our weather history database for the weather conditions in past years. The results will help you decide how hot, cold, wet, or windy it might be!

Date:

Astronomy

Jan. 16, 2013 Rise Set
Actual Time 7:29 AM CST 4:52 PM CST
Civil Twilight 6:57 AM CST 5:23 PM CST
Nautical Twilight 6:22 AM CST 5:59 PM CST
Astronomical Twilight 5:48 AM CST 6:33 PM CST
Moon 9:55 AM CST (1/16) 10:55 PM CST (1/16)
Length of Visible Light 10h 26m
Length of Day
9h 23m
Waxing Crescent, 28% of the Moon is Illuminated
Jan 16
Waxing Crescent
Jan 18
First Quarter
Jan 26
Full
Feb 3
Last Quarter
Feb 10
New

Hourly Weather History & Observations

Time (CST) Temp. Windchill Dew Point Humidity Pressure Visibility Wind Dir Wind Speed Gust Speed Precip Events Conditions
12:56 AM 19.9 °F 10.1 °F 10.0 °F 65% 30.03 in 10.0 mi SSW 8.1 mph - N/A   Clear
1:56 AM 21.0 °F 12.4 °F 10.0 °F 63% 30.01 in 10.0 mi SSW 6.9 mph - N/A   Clear
3:56 AM 21.0 °F - 9.0 °F 60% 29.94 in 10.0 mi Calm Calm - N/A   Clear
4:56 AM 21.0 °F 13.4 °F 9.0 °F 60% 29.91 in 10.0 mi SSW 5.8 mph - N/A   Clear
5:56 AM 21.0 °F 9.9 °F 10.0 °F 63% 29.87 in 10.0 mi SSW 10.4 mph 17.3 mph N/A   Clear
6:56 AM 23.0 °F 13.1 °F 12.0 °F 63% 29.86 in 10.0 mi SW 9.2 mph - N/A   Mostly Cloudy
7:56 AM 24.1 °F 14.4 °F 12.9 °F 62% 29.84 in 10.0 mi SW 9.2 mph - N/A   Overcast
8:56 AM 26.1 °F 17.6 °F 14.0 °F 60% 29.83 in 10.0 mi SW 8.1 mph - N/A   Overcast
9:39 AM 28.4 °F 19.7 °F 15.8 °F 59% 29.80 in 8.0 mi WSW 9.2 mph 18.4 mph N/A   Overcast
9:56 AM 28.0 °F 18.1 °F 17.1 °F 63% 29.82 in 10.0 mi WSW 11.5 mph - N/A   Overcast
10:09 AM 28.4 °F 17.5 °F 17.6 °F 64% 29.80 in 10.0 mi WSW 13.8 mph 18.4 mph N/A   Overcast
10:20 AM 28.4 °F 17.0 °F 17.6 °F 64% 29.80 in 10.0 mi WSW 15.0 mph 20.7 mph N/A   Overcast
10:56 AM 28.9 °F 19.8 °F 18.0 °F 64% 29.81 in 10.0 mi West 10.4 mph 20.7 mph N/A   Overcast
11:56 AM 30.0 °F 21.1 °F 21.0 °F 69% 29.80 in 9.0 mi West 10.4 mph - 0.00 in   Overcast
12:21 PM 30.2 °F 19.3 °F 21.2 °F 69% 29.77 in 6.0 mi West 15.0 mph 21.9 mph 0.00 in Snow Light Snow
12:56 PM 32.0 °F 24.2 °F 23.0 °F 69% 29.79 in 9.0 mi West 9.2 mph - 0.00 in   Overcast
1:56 PM 33.1 °F 26.1 °F 24.1 °F 70% 29.81 in 9.0 mi West 8.1 mph - N/A   Overcast
2:56 PM 34.0 °F 26.6 °F 26.1 °F 73% 29.83 in 9.0 mi West 9.2 mph - N/A   Overcast
3:11 PM 35.6 °F 28.6 °F 26.6 °F 70% 29.81 in 9.0 mi West 9.2 mph - N/A   Overcast
3:56 PM 35.1 °F 29.3 °F 27.0 °F 72% 29.85 in 9.0 mi West 6.9 mph - N/A   Overcast
4:56 PM 35.1 °F - 28.0 °F 76% 29.88 in 9.0 mi Calm Calm - N/A   Overcast
5:56 PM 33.1 °F - 28.0 °F 82% 29.92 in 9.0 mi Calm Calm - N/A   Overcast
6:56 PM 36.0 °F 31.1 °F 28.9 °F 76% 29.94 in 10.0 mi West 5.8 mph - N/A   Overcast
7:56 PM 37.0 °F 28.5 °F 28.9 °F 73% 29.98 in 10.0 mi WNW 13.8 mph - N/A   Overcast
8:09 PM 37.4 °F 29.3 °F 28.4 °F 70% 29.97 in 10.0 mi WNW 12.7 mph - N/A   Overcast
8:45 PM 37.4 °F 32.1 °F 28.4 °F 70% 29.99 in 10.0 mi NW 6.9 mph - N/A   Overcast
8:56 PM 36.0 °F 29.0 °F 28.0 °F 73% 30.02 in 10.0 mi NW 9.2 mph - N/A   Overcast
9:56 PM 33.1 °F 23.4 °F 21.9 °F 64% 30.06 in 10.0 mi NW 13.8 mph 23.0 mph N/A   Partly Cloudy
10:56 PM 30.9 °F 21.2 °F 19.0 °F 61% 30.08 in 10.0 mi NW 12.7 mph 19.6 mph N/A   Clear
11:56 PM 28.9 °F 21.1 °F 16.0 °F 58% 30.11 in 10.0 mi NW 8.1 mph - N/A   Clear